RH
33 29 24 14 10 10 9 8 7 6 6 5 5 5 5 5 4 4 4 4 4 4 3 3 3 3 4 4 4 3 3 2 2
34 32 26 13 10 9 8 8 8 7 7 6 5 5 5 5 5 5 5 4 3 3 3 3 3 3 4 4 4 3 3 2 2
35 34 29 11 9 9 9 9 9 9 8 8 7 7 6 6 6 6 6 5 4 3 3 4 4 4 4 4 4 4 3 4 3
36 35 32 11 10 9 10 10 10 10 9 9 9 8 8 7 7 7 7 6 6 5 4 4 4 5 5 5 4 5 5 5 5
32 32 32 13 11 10 10 10 10 10 10 10 10 10 10 9 8 8 8 8 7 6 6 6 6 6 6 6 6 6 7 7 7
25 32 33 15 11 11 11 11 11 11 11 11 12 12 12 11 10 9 9 10 9 8 8 8 8 8 8 8 8 8 9 9 9
31 35 27 16 14 12 12 12 11 12 12 12 13 13 14 14 12 12 11 10 11 10 8 9 10 10 10 11 11 11 11 11 12
22 21 18 15 14 14 12 12 12 13 14 15 16 16 15 15 14 13 12 12 12 12 12 10 9 10 12 11 12 13 13 13 13
13 15 16 15 14 12 13 14 15 16 19 19 18 17 16 16 16 15 14 14 13 13 12 13 12 8 8 11 12 12 13 12 12
11 10 11 12 12 14 15 18 19 20 21 20 19 18 17 16 17 18 17 15 15 14 13 13 13 14 13 8 7 10 12 13 13
20 13 12 13 14 16 18 21 22 22 22 22 22 21 18 17 16 16 17 18 17 17 16 16 14 14 15 16 13 9 8 12 14
43 20 15 16 17 19 21 23 23 24 24 24 25 24 21 18 16 15 16 18 18 18 18 18 18 17 17 17 16 13 13 12 13
65 48 22 18 18 20 22 24 25 25 25 25 26 25 23 21 18 16 15 16 17 17 18 18 18 18 19 18 17 16 15 14 15
76 76 44 23 19 18 19 20 22 23 24 26 26 26 26 24 22 19 17 15 16 18 19 19 19 19 19 19 19 18 18 18 21
81 85 72 34 24 22 21 21 22 23 24 24 25 26 26 26 24 22 19 17 17 19 20 21 20 20 20 21 20 20 20 20 22
87 95 88 55 30 26 26 27 27 26 26 26 26 28 28 26 26 23 21 18 18 19 21 21 21 20 22 23 22 22 22 23 25
79 90 91 69 44 29 28 31 34 34 32 30 29 29 28 27 26 25 22 20 20 21 21 21 22 22 23 24 23 22 22 21 22
76 92 95 69 50 37 31 32 36 37 35 33 31 30 29 28 27 26 23 21 22 23 23 23 24 24 24 24 23 22 23 25 28
86 87 86 82 79 49 34 38 41 41 39 37 34 31 30 28 26 27 24 24 25 25 25 25 24 25 25 24 26 32 37 40 40
99 95 97 95 76 55 39 40 44 43 43 39 34 32 30 29 28 26 24 27 27 26 26 26 26 25 28 39 46 44 43 42 41
Wind_Speed
5 5 7 8 8 8 5 4 3 3 4 4 5 4 5 6 7 8 9 9 10 9 9 11 11 11 10 10 9 9 11 11 11
5 6 8 8 5 4 1 2 2 2 3 3 4 4 5 6 7 8 9 10 10 10 11 12 11 11 10 10 10 12 12 10 12
6 7 8 7 4 1 1 3 3 4 5 5 5 5 5 7 8 9 10 10 12 12 12 12 12 13 12 12 13 13 11 10 11
7 8 8 6 4 3 3 1 1 3 5 7 7 7 8 8 9 11 12 12 14 14 15 14 14 15 15 14 12 11 12 12 12
8 9 9 7 5 5 4 3 2 2 4 6 8 9 9 9 10 11 13 14 14 15 15 16 16 16 15 14 14 14 14 13 13
9 10 10 7 6 6 6 6 4 4 4 5 7 9 10 10 11 12 13 15 16 17 17 18 18 17 17 16 16 16 17 16 16
10 12 11 8 7 7 8 7 7 7 7 8 9 11 12 12 13 14 15 16 18 18 19 20 21 21 21 20 19 19 21 20 19
10 11 11 9 9 9 9 8 9 9 10 11 12 13 14 15 15 15 16 17 19 20 20 21 23 24 26 26 24 24 24 25 24
9 11 11 11 10 9 9 10 10 10 11 13 14 16 17 18 19 19 19 20 21 21 22 24 24 26 28 31 31 31 31 30 30
9 10 10 11 11 11 11 11 11 13 14 15 16 18 19 21 22 23 23 23 24 24 24 26 27 28 29 31 33 35 36 36 36
11 13 13 13 14 14 14 14 14 15 16 17 18 19 21 23 25 26 27 27 28 28 28 29 30 31 33 34 35 35 37 38 39
13 15 16 16 17 17 18 18 18 18 18 19 20 22 23 25 27 29 29 30 31 32 33 33 33 34 35 36 38 38 38 38 39
20 18 18 18 20 20 21 21 21 22 23 23 24 25 26 27 29 31 32 33 34 35 36 37 37 37 38 38 39 40 40 40 41
24 24 22 22 22 23 24 25 25 26 26 27 28 28 30 31 32 34 36 37 38 39 39 40 40 40 41 41 42 42 43 43 43
29 30 26 25 25 25 26 28 29 30 30 31 32 32 34 35 36 38 40 41 42 42 42 42 43 43 44 45 45 45 45 46 47
32 33 31 28 28 28 28 30 31 32 34 35 36 37 38 39 41 42 43 44 45 45 45 45 45 46 47 48 49 49 50 50 50
35 37 34 33 32 32 32 32 33 35 37 38 39 40 42 43 45 47 48 47 47 47 47 47 48 49 50 51 52 53 53 54 54
40 40 38 36 36 36 36 36 37 39 41 42 44 44 46 47 49 51 52 51 50 49 50 51 52 52 53 55 55 56 57 58 60
43 42 42 40 40 39 41 40 40 41 44 46 46 47 49 52 53 54 54 53 53 54 55 55 56 57 58 59 59 60 62 63 64
45 45 45 44 45 44 44 45 45 45 46 48 48 51 53 56 57 58 56 56 57 58 59 60 61 62 62 64 65 66 65 66 67
Wind_Direction
292 311 321 327 330 337 337 344 358 356 353 350 345 352 355 356 357 351 349 343 342 340 343 342 344 345 342 342 331 328 333 339 342
281 303 313 322 331 343 37 78 69 48 21 6 359 350 350 349 350 341 339 337 331 329 330 333 334 337 336 332 321 317 320 324 332
266 291 309 315 318 304 152 114 89 68 49 34 26 11 352 345 338 336 333 331 322 317 317 318 320 324 323 317 314 313 311 312 316
259 286 308 305 292 255 214 179 63 45 34 26 18 10 357 343 338 334 331 330 323 321 317 311 310 314 316 313 310 307 307 305 310
250 275 301 296 286 263 248 256 311 345 358 6 7 1 350 340 333 327 320 320 317 314 311 308 305 305 307 307 303 297 294 296 300
243 267 292 292 280 265 254 255 271 287 302 324 337 343 341 331 321 315 310 310 309 306 307 303 302 298 299 296 297 292 288 292 298
249 268 278 276 272 267 263 266 277 288 301 309 312 311 320 323 318 310 305 304 303 304 301 297 295 293 290 290 290 288 289 290 293
261 265 265 264 264 263 261 267 274 288 299 300 303 304 303 306 306 304 300 297 296 297 297 295 289 285 285 284 282 280 282 284 286
271 267 266 264 256 253 259 269 278 285 296 298 296 298 298 297 298 296 294 293 292 292 293 293 291 288 283 280 279 280 280 281 283
278 269 261 258 257 259 264 272 279 285 291 297 298 297 295 294 294 295 293 290 289 289 289 289 290 290 288 285 282 279 277 278 279
284 267 260 259 261 262 264 268 278 282 285 289 296 300 300 298 295 294 293 292 292 291 290 289 288 287 287 288 288 284 281 279 277
298 279 266 264 263 265 268 270 275 281 285 289 294 298 300 300 298 296 293 292 292 291 292 291 290 288 287 287 287 287 284 281 278
301 291 276 271 268 268 269 272 276 279 284 290 293 297 299 301 300 298 296 293 291 290 291 292 292 290 288 287 287 287 286 283 280
298 298 286 278 274 275 278 279 281 283 286 289 293 295 298 299 301 300 298 294 292 291 291 291 292 291 289 287 286 286 285 284 282
288 295 284 279 279 279 282 284 286 288 290 291 292 294 296 297 299 300 298 296 293 291 291 291 291 290 289 287 286 285 283 282 282
281 286 287 279 280 281 285 286 287 288 289 290 291 292 294 296 298 298 297 295 293 291 291 291 290 288 286 286 285 285 284 284 283
279 282 281 280 282 283 283 285 288 291 291 291 291 292 295 297 297 296 296 294 292 291 290 289 288 287 287 288 287 286 285 284 284
279 282 273 276 280 283 286 288 288 290 292 292 293 293 295 295 295 296 295 294 293 291 290 290 289 290 289 287 287 287 287 286 286
274 277 270 275 281 285 286 286 287 289 291 293 294 294 294 294 294 294 295 293 292 292 292 292 291 291 290 289 288 288 287 286 285
271 272 268 277 279 280 284 286 288 290 292 293 292 292 292 292 293 294 293 293 293 293 293 292 292 291 290 290 289 288 287 287 286